Regional Weather Roundup
Issued by NWS Kansas City/Pleasant Hill, MO

Home | Current Version | Previous Version | Text Only | Print | Product List | Glossary On
Versions: 1 2 3 4 5 6 7 8 9 10 11 12 13 14 15 16 17 18 19 20 21 22 23 24 25 26 27 28 29 30 31 32 33 34 35 36 37 38 39 40 41 42 43 44 45 46 47 48 49 50
000
ASUS43 KEAX 231210
RWREAX

WEATHER ROUNDUP FOR EASTERN KANSAS AND NORTHWEST MISSOURI
NATIONAL WEATHER SERVICE KANSAS CITY/PLEASANT HILL MO
700 AM CDT THU OCT 23 2014

KSZ040-057-103>105-MOZ028-029-037-043-231300-
...KANSAS CITY METROPOLITAN AREA...

CITY           SKY/WX    TMP DP  RH WIND       PRES   REMARKS
K.C. INTL      CLOUDY    56  56 100 SE3       30.07F
6HR MIN TEMP:  56; 6HR MAX TEMP:  62; 6HR PCP:  0.31;

K.C. DOWNTOWN  CLOUDY    59  56  89 CALM      30.07F
6HR MIN TEMP:  59; 6HR MAX TEMP:  64; 6HR PCP:  0.10;

LEES SUMMIT    CLOUDY    57  54  89 S3        30.08F
6HR MIN TEMP:  56; 6HR MAX TEMP:  59; 6HR PCP:  0.13;

OLATHE - IXD   LGT RAIN  59  58  96 SW8       30.10F FOG
6HR MIN TEMP:  57; 6HR MAX TEMP:  61; 6HR PCP:  0.12;

OLATHE - OJC   LGT RAIN  57  57 100 SW9       30.08F FOG
6HR MIN TEMP:  57; 6HR MAX TEMP:  60; 6HR PCP:  0.06;

LAWRENCE       LGT RAIN  60  58  92 SW8       30.09F FOG

$$

MOZ001>008-011>017-020>025-030>033-038>040-044>046-053-054-231300-
...NORTHERN AND CENTRAL MISSOURI...

CITY           SKY/WX    TMP DP  RH WIND       PRES   REMARKS
ST. JOSEPH     MOCLDY    56  56 100 S5        30.06F
6HR MIN TEMP:  56; 6HR MAX TEMP:  62; 6HR PCP:  0.33;

MOSBY          CLOUDY    55  54  94 E3        30.08F
WHITEMAN AFB   CLOUDY    55  49  79 S8        30.12S
6HR MIN TEMP:  53; 6HR MAX TEMP:  55;

CLINTON        CLOUDY    55  50  82 S7        30.14S
SEDALIA        CLOUDY    54  46  74 S9        30.14F
6HR MIN TEMP:  50; 6HR MAX TEMP:  55;

WARSAW         NOT AVBL
MARSHALL       CLOUDY    55  50  82 CALM      30.12F
CHILLICOTHE      N/A     54  49  83 SE6       30.09F
6HR MIN TEMP:  54; 6HR MAX TEMP:  55;

KIRKSVILLE     CLOUDY    51  46  83 S9        30.11F
6HR MIN TEMP:  47; 6HR MAX TEMP:  51;


$$

MOZ041-047>049-056>058-063>065-088>090-097-231300-
...EASTERN AND SOUTHERN MISSOURI...

CITY           SKY/WX    TMP DP  RH WIND       PRES   REMARKS
ST. LOUIS INTL MOCLDY    48  40  73 CALM      30.21R
6HR MIN TEMP:  42; 6HR MAX TEMP:  48;

SPIRIT OF STL  MOCLDY    37  36  96 CALM      30.20R
COLUMBIA       CLOUDY    47  43  86 SE7       30.15F
JEFFERSON CITY CLOUDY    47  42  83 SE6       30.16F
MEXICO         CLOUDY    48  46  93 S6        30.16F
HANNIBAL       CLOUDY    48  39  71 S6        30.16S
ROLLA          MOCLDY    46  40  79 SE7       30.16F
LEBANON        CLOUDY    50  43  76 S6        30.17R
OSAGE BEACH    CLOUDY    48  41  76 S8        30.16S
SPRINGFIELD    CLOUDY    53  43  68 SE14      30.15F
BRANSON        CLOUDY    50  45  81 E5        30.18S
JOPLIN         LGT RAIN  58  52  80 S7        30.14S
WEST PLAINS    CLOUDY    40  37  89 CALM      30.21R

$$

IAZ060-094-KSZ022-034>040-054-083-096-NEZ052-066-093-231300-
...KANSAS...SOUTHEAST NEBRASKA AND IOWA...

CITY           SKY/WX    TMP DP  RH WIND       PRES   REMARKS
TOPEKA         LGT RAIN  61  60  97 SE6       30.09R FOG
6HR MIN TEMP:  61; 6HR MAX TEMP:  64; 6HR PCP:  1.22;

MANHATTAN      CLOUDY    61  60  97 CALM      30.07R FOG
EMPORIA        CLOUDY    61  61 100 S6        30.09R FOG
CHANUTE        LGT RAIN  59  57  93 S8        30.11S
WICHITA        CLOUDY    62  58  86 S10       30.07F
OMAHA          CLOUDY    62  58  86 SW5       30.03S
LINCOLN        FOG       52  52 100 NW3       30.06R VSB 1/4
FALLS CITY     CLOUDY    62  60  93 S9        30.05R
LAMONI         LGT RAIN  51  48  89 S9        30.05F
DES MOINES     CLOUDY    54  50  86 S5        30.04S

$$




USA.gov is the U.S. government's official web portal to all federal, state and local government web resources and services.